Beidou Navigation System
NORAD ID: 26643
Int'l Code: 2000-082A
Perigee: 35,726.5 km
Apogee: 36,435.8 km
Inclination: 5.4 °
Period: 1,450.8 minutes
Semi major axis: 42452 km
Launch date: December 20, 2000
Source: People's Republic of China (PRC)
Comments: Space-bsaed navigation and positioning system to improve accuracy of weapons and situational awareness of military forces.
Two Line Element Set (TLE):
1 26643U 00082A 13168.03458137 -.00000304 00000-0 10000-3 0 2929
2 26643 005.4026 061.1521 0083547 331.8732 027.5098 00.99255262 45730
Source: AFSPC
NASA's NSSDC Master Catalog entry for BEIDOU 1B